sat.trackr.live / text

‹ back to catalog

GLOBAL-18

NORAD 52196 · 2022-034B

PAYLOAD ACTIVE UNKNOWN

§ Identity

Operator
Country
US
Launch date
2022-04-02
Launch site
RLLB
Launch vehicle
Mass (kg)
RCS (m²)

External: N2YO · Heavens-Above · Gunter

§ Orbital elements

Epoch: 2026-05-24T21:56:13.212384Z

Period
93.19 min
Inclination
52.9833°
Eccentricity
0.0004722
Mean motion
15.45174250 rev/d
Perigee alt
427.7 km
Apogee alt
434.1 km
Semi-major
6,809.0 km
B*
3.9920e-4
RAAN
7.7784°
Arg perigee
165.0297°
Mean anomaly
195.0849°
Rev number
23,336

§ Raw data

GLOBAL-181 52196U 22034B   26144.91404181  .00018863  00000+0  39920-3 0  99902 52196  52.9833   7.7784 0004722 165.0297 195.0849 15.45174250233360

JSON: /api/v1/satellites/52196 · /tle

For live sub-satellite position, see the globe view (requires WebGL).

§ Visibility from observer

Set your observer location to see the next 7 days of passes ≥ 10°. The values pass through the URL so the page stays shareable.

No JS? Fill the form by hand. The geolocation button needs JavaScript.

§ Radio — SatNOGS DB

ModeDescriptionDownlinkUplink
FM Telemetry 400.875 MHz
FM Telemetry 401.085 MHz
BPSK UHF Unknown 401.225 MHz

3 transmitters · refreshed weekly from db.satnogs.org